Maple Lake, MN

2:54 AM CST on November 18, 2017 (GMT -0600)
Maple Lake Municipal

Weather History for KMGG - April, 2014

Change the Weather History Date:

Saturday, April 19, 2014

  Actual Average (KSTC) Record (KSTC)
Temperature  
Mean Temperature 52 °F -  
Max Temperature 63 °F 59 °F 87 °F (1987)
Min Temperature 41 °F 36 °F 15 °F (1897)
Degree Days  
Heating Degree Days 13    
Growing Degree Days 2 (Base 50)    
Moisture  
Dew Point 40 °F    
Average Humidity 70    
Maximum Humidity 97    
Minimum Humidity 57    
Precipitation  
Precipitation 0.00 in - - ()
Sea Level Pressure  
Sea Level Pressure 30.03 in    
Wind  
Wind Speed 9 mph (SSE)    
Max Wind Speed 18 mph    
Max Gust Speed 28 mph    
Visibility 9 miles    
Events Rain    
Averages and records for this station are not official NWS values.
T = Trace of Precipitation, MM = Missing Value Source: NWS Daily Summary

Daily Weather History Graph

Daily Weather History Graph

Search for Another Location

Airport or City:

Trip Planner

Search our weather history database for the weather conditions in past years. The results will help you decide how hot, cold, wet, or windy it might be!

Date:

Astronomy

Apr. 19, 2014 Rise Set
Actual Time 6:23 AM CDT 8:06 PM CDT
Civil Twilight 5:52 AM CDT 8:38 PM CDT
Nautical Twilight 5:14 AM CDT 9:16 PM CDT
Astronomical Twilight 4:33 AM CDT 9:57 PM CDT
Moon No Moon Rise 9:36 AM CDT (4/19)
Length of Visible Light 14h 45m
Length of Day
13h 43m
Waning Gibbous, 78% of the Moon is Illuminated
Apr 19
Waning Gibbous
Apr 22
Last Quarter
Apr 29
New
May 6
First Quarter
May 14
Full

Hourly Weather History & Observations

Time (CDT) Temp. Windchill Dew Point Humidity Pressure Visibility Wind Dir Wind Speed Gust Speed Precip Events Conditions
12:17 AM 41.0 °F 35.2 °F 30.7 °F 67% 30.15 in 10.0 mi ESE 9.2 mph - N/A   Clear
12:37 AM 41.0 °F 36.4 °F 30.9 °F 67% 30.14 in 10.0 mi ESE 6.9 mph - N/A   Clear
12:57 AM 41.0 °F 35.8 °F 30.9 °F 67% 30.14 in 10.0 mi East 8.1 mph - N/A   Clear
1:17 AM 41.0 °F 35.2 °F 30.9 °F 67% 30.12 in 10.0 mi ESE 9.2 mph - N/A   Clear
1:37 AM 42.1 °F 36.1 °F 30.7 °F 64% 30.10 in 10.0 mi ESE 10.4 mph 16.1 mph N/A   Clear
1:57 AM 43.0 °F 37.2 °F 30.9 °F 62% 30.11 in 10.0 mi ESE 10.4 mph 16.1 mph N/A   Clear
2:17 AM 43.7 °F 38.6 °F 31.3 °F 62% 30.10 in 10.0 mi SE 9.2 mph 18.4 mph N/A   Clear
2:37 AM 43.7 °F 38.1 °F 31.8 °F 63% 30.10 in 10.0 mi SE 10.4 mph 17.3 mph N/A   Clear
2:58 AM 44.6 °F 38.1 °F 32.0 °F 61% 30.10 in 10.0 mi SE 13.8 mph 18.4 mph N/A   Clear
3:17 AM 44.4 °F 38.6 °F 32.0 °F 62% 30.10 in 10.0 mi SE 11.5 mph 17.3 mph N/A   Clear
3:37 AM 44.2 °F 38.8 °F 32.0 °F 62% 30.09 in 10.0 mi SE 10.4 mph 17.3 mph N/A   Clear
4:17 AM 44.6 °F 38.1 °F 32.0 °F 61% 30.06 in 10.0 mi SE 13.8 mph 24.2 mph N/A   Clear
4:38 AM 44.2 °F 37.3 °F 32.2 °F 63% 30.07 in 10.0 mi SE 15.0 mph 24.2 mph N/A   Clear
4:57 AM 44.4 °F 39.0 °F 32.5 °F 63% 30.07 in 10.0 mi SE 10.4 mph 17.3 mph N/A   Clear
5:17 AM 44.8 °F 39.0 °F 33.1 °F 64% 30.07 in 10.0 mi SE 11.5 mph 18.4 mph N/A   Scattered Clouds
5:37 AM 45.3 °F 38.4 °F 33.1 °F 62% 30.06 in 10.0 mi SE 16.1 mph 21.9 mph N/A   Scattered Clouds
5:57 AM 45.3 °F 39.3 °F 33.4 °F 63% 30.06 in 10.0 mi SSE 12.7 mph 21.9 mph N/A   Clear
6:17 AM 45.1 °F 37.9 °F 33.8 °F 65% 30.05 in 10.0 mi SSE 17.3 mph 23.0 mph N/A   Scattered Clouds
7:17 AM 45.0 °F 38.5 °F 35.2 °F 69% 30.05 in 10.0 mi SSE 13.8 mph 20.7 mph N/A   Mostly Cloudy
7:38 AM 45.0 °F 38.2 °F 35.6 °F 70% 30.05 in 10.0 mi SSE 15.0 mph 21.9 mph N/A   Scattered Clouds
7:57 AM 45.5 °F 39.6 °F 36.0 °F 69% 30.05 in 10.0 mi SSE 12.7 mph 21.9 mph N/A   Mostly Cloudy
8:17 AM 45.5 °F 38.9 °F 36.0 °F 69% 30.06 in 10.0 mi SSE 15.0 mph 25.3 mph N/A   Overcast
8:37 AM 45.3 °F 38.4 °F 36.0 °F 70% 30.06 in 10.0 mi SSE 16.1 mph 27.6 mph N/A   Overcast
8:57 AM 45.0 °F 37.4 °F 36.1 °F 71% 30.05 in 10.0 mi SSE 18.4 mph 27.6 mph N/A   Overcast
9:17 AM 45.1 °F 38.8 °F 36.5 °F 72% 30.04 in 10.0 mi SSE 13.8 mph 25.3 mph N/A   Overcast
9:38 AM 45.5 °F 38.6 °F 36.5 °F 71% 30.03 in 10.0 mi SSE 16.1 mph 23.0 mph N/A   Overcast
9:57 AM 45.9 °F 40.0 °F 36.9 °F 71% 30.04 in 10.0 mi SSE 12.7 mph 18.4 mph N/A   Overcast
10:17 AM 46.6 °F - 37.4 °F 70% 30.03 in 10.0 mi SSE 10.4 mph 16.1 mph N/A   Overcast
10:37 AM 48.2 °F - 37.9 °F 68% 30.03 in 10.0 mi SSE 13.8 mph 21.9 mph N/A   Overcast
10:57 AM 49.1 °F - 38.7 °F 67% 30.03 in 10.0 mi South 15.0 mph 23.0 mph N/A   Overcast
11:17 AM 50.0 °F - 39.2 °F 66% 30.02 in 10.0 mi South 12.7 mph 21.9 mph N/A   Overcast
11:38 AM 51.3 °F - 40.1 °F 66% 30.02 in 10.0 mi South 11.5 mph 21.9 mph N/A   Overcast
11:57 AM 52.3 °F - 41.0 °F 65% 30.00 in 10.0 mi SSE 16.1 mph 19.6 mph N/A   Mostly Cloudy
12:17 PM 53.1 °F - 41.9 °F 66% 30.00 in 10.0 mi South 8.1 mph 18.4 mph N/A   Overcast
12:37 PM 54.0 °F - 42.6 °F 65% 30.01 in 10.0 mi South 10.4 mph 18.4 mph N/A Rain Light Rain
12:57 PM 56.5 °F - 44.6 °F 64% 30.00 in 10.0 mi South 10.4 mph 17.3 mph N/A   Scattered Clouds
1:18 PM 57.9 °F - 45.0 °F 62% 29.99 in 10.0 mi South 9.2 mph 16.1 mph N/A   Mostly Cloudy
1:37 PM 58.5 °F - 44.6 °F 60% 29.99 in 10.0 mi South 8.1 mph - N/A   Mostly Cloudy
1:57 PM 59.5 °F - 45.7 °F 60% 29.99 in 10.0 mi South 6.9 mph - N/A   Mostly Cloudy
2:17 PM 61.2 °F - 46.6 °F 59% 29.98 in 10.0 mi SSE 5.8 mph - N/A   Scattered Clouds
2:37 PM 62.6 °F - 47.5 °F 58% 29.98 in 10.0 mi SSE 4.6 mph - N/A   Mostly Cloudy
2:57 PM 63.1 °F - 47.8 °F 57% 29.99 in 10.0 mi Calm Calm - N/A   Overcast
3:17 PM 63.3 °F - 47.8 °F 57% 29.99 in 10.0 mi Calm Calm - N/A   Mostly Cloudy
3:37 PM 62.2 °F - 48.7 °F 61% 29.99 in 10.0 mi WNW 4.6 mph - N/A   Mostly Cloudy
3:58 PM 62.1 °F - 48.6 °F 61% 29.99 in 10.0 mi West 3.5 mph - N/A   Mostly Cloudy
4:37 PM 61.3 °F - 48.7 °F 63% 29.99 in 10.0 mi West 3.5 mph - N/A   Mostly Cloudy
4:57 PM 61.0 °F - 49.1 °F 65% 29.99 in 10.0 mi West 4.6 mph - N/A   Mostly Cloudy
5:17 PM 60.1 °F - 49.1 °F 67% 29.98 in 10.0 mi Calm Calm - N/A   Scattered Clouds
5:37 PM 60.8 °F - 49.1 °F 65% 29.98 in 10.0 mi Calm Calm - N/A   Mostly Cloudy
5:57 PM 61.2 °F - 48.6 °F 63% 29.98 in 10.0 mi Calm Calm - N/A   Scattered Clouds
6:17 PM 60.8 °F - 48.7 °F 64% 29.99 in 10.0 mi West 3.5 mph - N/A   Mostly Cloudy
6:37 PM 60.3 °F - 48.2 °F 64% 29.99 in 10.0 mi Calm Calm - N/A   Mostly Cloudy
6:57 PM 59.9 °F - 48.4 °F 66% 30.00 in 10.0 mi Calm Calm - N/A   Scattered Clouds
7:17 PM 58.5 °F - 48.6 °F 70% 30.00 in 10.0 mi Calm Calm - N/A   Scattered Clouds
7:37 PM 57.7 °F - 48.2 °F 70% 30.00 in 10.0 mi Calm Calm - N/A   Clear
7:57 PM 53.8 °F - 47.1 °F 78% 30.00 in 10.0 mi Calm Calm - N/A   Scattered Clouds
8:17 PM 49.3 °F - 45.5 °F 87% 30.00 in 10.0 mi Calm Calm - N/A   Scattered Clouds
8:37 PM 50.0 °F - 46.6 °F 88% 30.00 in 10.0 mi Calm Calm - N/A   Mostly Cloudy
8:58 PM 48.0 °F - 45.1 °F 90% 30.01 in 7.0 mi Calm Calm - N/A   Mostly Cloudy
9:17 PM 46.9 °F - 45.1 °F 93% 30.01 in 7.0 mi Calm Calm - N/A   Mostly Cloudy
9:37 PM 46.4 °F - 44.8 °F 94% 30.02 in 7.0 mi Calm Calm - N/A   Scattered Clouds
9:57 PM 46.8 °F - 45.3 °F 95% 30.02 in 7.0 mi Calm Calm - N/A   Scattered Clouds
10:17 PM 45.3 °F - 43.9 °F 95% 30.02 in 5.0 mi Calm Calm - N/A   Clear
10:38 PM 45.0 °F - 44.1 °F 97% 30.02 in 5.0 mi Calm Calm - N/A   Scattered Clouds
10:57 PM 43.5 °F - 42.6 °F 97% 30.02 in 5.0 mi Calm Calm - N/A   Scattered Clouds
11:17 PM 44.1 °F - 43.3 °F 97% 30.02 in 5.0 mi Calm Calm - N/A   Mostly Cloudy
11:37 PM 44.1 °F - 42.6 °F 95% 30.02 in 5.0 mi Calm Calm - N/A   Overcast
11:57 PM 42.6 °F - 41.4 °F 95% 30.02 in 5.0 mi Calm Calm - N/A   Overcast